NOAA 16 DEB

Satellite information

Favourite Embed

Satellite Type and Status

DEBRISIN ORBIT

Key statistics

Satellite NOAA 16 DEB at a glance.

Uptime

9118

Days in orbit

Revolutions

≈ 14.7

Per day

Orbit

SSO

Sun Synchronous Orbit

Inclination

99.0

Latest

Satellite identification and parameters

Extended collection of information and parameters for NOAA 16 DEB.

Object identification

Identified? True

Debris? True

Object name: NOAA 16 DEB

International designator: 2000-055CP

Object number (NORAD): 41156

Object ID (CCSDS): 41156

Country: UNITED STATES OF AMERICA (US)

Current information (Y/N): Y

RCS size: SMALL

Orbital parameters

Period: 98.071 minutes

Inclination: 98.9526 deg

SMA: 7044.557 km

Apoapsis: 690.187 km

Periapsis: 642.657 km

RAAN: 123.5849 deg

Eccentricy: 0.0033735

Argument of periapsis: 111.7211 deg

Mean anomaly: 248.7588 deg

Mean motion: 14.68325031 rev/day

Mean motion (dot): 0.00019444 rev/day2

B* drag term: 0.0033402216 1/REarth

Two-line elements (TLE)

Creation date: Sept. 8, 2025, 3:16 a.m.

Reference frame: TEME

Reference center: EARTH

Epoch: Sept. 7, 2025, 10:44 a.m. UTC

TLE line 0: 0 NOAA 16 DEB

TLE line 1: 1 41156U 00055CP 25250.44771589 .00019444 00000-0 33402-2 0 9992

TLE line 2: 2 41156 98.9526 123.5849 0033735 111.7211 248.7588 14.68325031511041

Live tracking on map

Real-time ground track for satellite NOAA 16 DEB.

In-orbit conjunctions

A list of the most updated potential collisions computed for object NOAA 16 DEB.

Target Orbit TCA Probability of collision Miss distance Type
COSMOS 220 LEO 2025-05-18 18:54:38 0.0001385433 983.0 (m) PAYLOAD
FENGYUN 1C DEB SSO 2024-07-02 08:28:59 0.0001311756 154.0 (m) DEBRIS

Associated space launch

The NOAA K, L and M POES satellites begin the fifth generation of improved environmental monitoring in support of NOAA missions. The instrument payload has significant improvements and additions/deletions. The instrument changes have effected the spacecraft subsystems and data formats.

NOAA 16 DEB was lifted into orbit during the mission ‘Titan II SLV | NOAA 16’, on board a Titan II SLV space rocket.

The launch took place on Sept. 21, 2000, 10:22 a.m. from Space Launch Complex 4W.

For more information about the launch, click the button.

Launch to space Titan II SLV | NOAA 16
Titan II SLV | NOAA 16

Agency: N/A

Status: Launch Successful

Launch date: Sept. 21, 2000, 10:22 a.m. UTC

Rocket: Titan II SLV

Launch pad: Space Launch Complex 4W

Location: Vandenberg SFB, CA, USA

...

Latest news about this satellite

There are no fresh news available about this satellite. Check back as we update our databases every day.


Newsletter sign-up

Weekly statistics, charts and insights to help you stay on top of the space industry.